User: anonymous   Login
Location: Caltech
(34.1382°N, 118.1253°W)
Time: 16:31:52
(UTC-08:00)
Language:

Iridium 94 - Orbit

View from above orbital plane
View from above orbital plane
View from above satellite
View from above satellite

Ground track
Ground track

The orbit data is extracted from the following two-line orbital elements,

1 27374U 02005C   17345.49128795 -.00000019  00000-0 -13804-4 0  9997
2 27374  86.3970 181.6263 0001699 106.0600 313.3235 14.34217586841366
Epoch (UTC): 11 December 2017 11:47:27
Eccentricity: 0.0001699
inclination: 86.3970°
perigee height: 776 km
apogee height: 779 km
right ascension of ascending node: 181.6263°
argument of perigee: 106.0600°
revolutions per day: 14.34217586
mean anomaly at epoch: 313.3235°
orbit number at epoch: 84136

The dashed part of the orbit path shows where the satellite is in the earth's shadow,  

DLR